EW2270 Weather Reports


time (UTC)temp
F
wind
direction
speed
knots
gust
knots
rain 1hr
in
rain 24hr
in
rain mn
in
humidity
%
barometer
mb
20260831060059 54 125 0.0 2.6 0.00 0.00 0.00 52 1014.4
20260831054547 54 126 0.0 1.7 0.00 0.00 0.00 52 1014.4
20260831053048 54 148 0.0 0.9 0.00 0.00 0.00 51 1014.3
20260831051555 55 160 0.9 1.7 0.00 0.00 0.00 51 1014.3
20260831050045 55 263 1.7 2.6 0.00 0.00 0.00 52 1014.4
20260831044547 56 142 0.0 2.6 0.00 0.00 0.00 49 1014.3
20260831043048 55 142 0.0 1.7 0.00 0.00 0.00 51 1014.5
20260831041543 57 158 0.0 0.9 0.00 0.00 0.00 48 1014.4
20260831040042 57 158 0.0 1.7 0.00 0.00 0.00 47 1014.4
20260831034544 59 158 0.0 1.7 0.00 0.00 0.00 46 1014.3
20260831033042 59 132 0.9 2.6 0.00 0.00 0.00 43 1014.2
20260831031545 61 110 0.9 2.6 0.00 0.00 0.00 45 1014.2
20260831030047 65 115 0.9 1.7 0.00 0.00 0.00 39 1014.1
20260831024607 69 309 0.0 1.7 0.00 0.00 0.00 36 1013.9
20260831023039 70 298 0.9 2.6 0.00 0.00 0.00 34 1013.8
20260831021539 71 305 0.9 3.5 0.00 0.00 0.00 33 1013.7
20260831020039 73 312 0.9 2.6 0.00 0.00 0.00 32 1013.7
20260831014540 74 312 1.7 4.3 0.00 0.00 0.00 31 1013.6
20260831013042 74 314 3.5 5.2 0.00 0.00 0.00 31 1013.8
20260831011537 75 313 0.9 4.3 0.00 0.00 0.00 29 1013.8
20260831010035 75 302 1.7 6.1 0.00 0.00 0.00 31 1013.8
20260831004535 75 342 1.7 6.1 0.00 0.00 0.00 30 1013.9
20260831003034 75 336 1.7 6.1 0.00 0.00 0.00 30 1014.0
20260831001532 75 319 3.5 7.8 0.00 0.00 0.00 30 1014.1
20260831000030 75 298 5.2 8.7 0.00 0.00 0.00 28 1014.2
20260830234528 75 292 1.7 7.0 0.00 0.00 0.00 30 1014.3
20260830233027 75 288 4.3 8.7 0.00 0.00 0.00 29 1014.4
20260830231532 75 297 6.1 8.7 0.00 0.00 0.00 29 1014.5
20260830230024 75 250 5.2 7.8 0.00 0.00 0.00 28 1014.5
20260830224527 75 267 1.7 10.4 0.00 0.00 0.00 28 1014.6
20260830223020 75 299 5.2 7.8 0.00 0.00 0.00 29 1014.8
20260830221524 75 17 0.9 7.0 0.00 0.00 0.00 30 1014.9
20260830220014 74 83 0.9 6.1 0.00 0.00 0.00 30 1015.2
20260830214510 74 356 5.2 8.7 0.00 0.00 0.00 30 1015.4
20260830213007 72 44 2.6 9.6 0.00 0.00 0.00 31 1015.6
20260830211507 72 28 2.6 7.8 0.00 0.00 0.00 32 1015.7
20260830210004 72 333 2.6 13.0 0.00 0.00 0.00 33 1016.0
20260830204502 72 285 4.3 7.0 0.00 0.00 0.00 34 1016.2
20260830203118 72 252 0.0 10.4 0.00 0.00 0.00 34 1016.3
20260830201608 71 324 0.0 9.6 0.00 0.00 0.00 35 1016.5
20260830200055 70 270 3.5 10.4 0.00 0.00 0.00 36 1016.7
20260830194553 69 345 3.5 10.4 0.00 0.00 0.00 37 1016.7
20260830193053 70 273 3.5 7.0 0.00 0.00 0.00 37 1017.0
20260830191557 69 285 4.3 7.0 0.00 0.00 0.00 38 1017.1
20260830190048 68 224 4.3 8.7 0.00 0.00 0.00 39 1017.2
20260830184547 68 344 4.3 12.2 0.00 0.00 0.00 39 1017.4
20260830183048 66 305 3.5 7.0 0.00 0.00 0.00 41 1017.6
20260830181551 65 5 4.3 8.7 0.00 0.00 0.00 41 1017.8
20260830180041 65 206 0.9 5.2 0.00 0.00 0.00 43 1017.7
20260830174538 65 300 2.6 6.1 0.00 0.00 0.00 42 1017.8
20260830173047 64 339 0.9 5.2 0.00 0.00 0.00 43 1018.1
20260830171542 64 292 1.7 4.3 0.00 0.00 0.00 44 1018.1
20260830170033 63 267 0.0 4.3 0.00 0.00 0.00 45 1018.3
20260830164547 62 238 2.6 6.1 0.00 0.00 0.00 45 1018.4
20260830163034 61 10 0.9 6.1 0.00 0.00 0.00 48 1018.5
20260830161530 62 224 1.7 5.2 0.00 0.00 0.00 47 1018.5
20260830160029 61 203 1.7 5.2 0.00 0.00 0.00 48 1018.6
20260830154626 60 196 2.6 6.1 0.00 0.00 0.00 49 1018.7
20260830153023 59 226 0.9 2.6 0.00 0.00 0.00 51 1018.6
20260830151536 56 145 0.0 0.0 0.00 0.00 0.00 60 1018.7
20260830150020 53 145 0.9 1.7 0.00 0.00 0.00 65 1018.8
20260830144521 51 145 0.0 1.7 0.00 0.00 0.00 66 1018.8
20260830143018 49 145 0.0 0.9 0.00 0.00 0.00 68 1018.7
20260830141517 49 145 0.9 2.6 0.00 0.00 0.00 67 1018.7
20260830140015 48 145 1.7 4.3 0.00 0.00 0.00 70 1018.5
20260830134515 46 138 0.9 4.3 0.00 0.00 0.00 74 1018.3
20260830133012 45 136 0.9 5.2 0.00 0.00 0.00 74 1018.3
20260830131509 45 141 3.5 6.1 0.00 0.00 0.00 73 1018.3
20260830130007 46 131 0.9 5.2 0.00 0.00 0.00 72 1018.0
20260830124509 46 138 1.7 3.5 0.00 0.00 0.00 70 1018.1
20260830123100 48 125 0.9 4.3 0.00 0.00 0.00 68 1017.9
20260830121557 50 144 3.5 4.3 0.00 0.00 0.00 65 1017.9
20260830120057 52 167 1.7 4.3 0.00 0.00 0.00 65 1017.9
20260830114613 50 152 2.6 5.2 0.00 0.00 0.00 65 1017.9
20260830113057 51 167 4.3 6.1 0.00 0.00 0.00 66 1017.8
20260830111552 51 150 3.5 5.2 0.00 0.00 0.00 66 1017.6
20260830110050 50 144 2.6 4.3 0.00 0.00 0.00 67 1017.5
20260830104557 50 148 3.5 7.0 0.00 0.00 0.00 66 1017.3
20260830103048 51 128 3.5 7.0 0.00 0.00 0.00 64 1017.2
20260830101549 52 167 5.2 7.0 0.00 0.00 0.00 65 1017.3
20260830100046 51 155 4.3 7.0 0.00 0.00 0.00 67 1017.1
20260830094545 51 143 1.7 4.3 0.00 0.00 0.00 66 1017.1
20260830093042 52 146 4.3 6.1 0.00 0.00 0.00 64 1017.0
20260830091538 52 141 4.3 7.0 0.00 0.00 0.00 63 1017.0
20260830090041 53 152 3.5 7.0 0.00 0.00 0.00 63 1017.0
20260830084533 53 158 4.3 6.1 0.00 0.00 0.00 62 1017.1
20260830083055 53 156 4.3 7.0 0.00 0.00 0.00 62 1017.1
20260830081532 54 150 4.3 7.0 0.00 0.00 0.00 60 1017.1
20260830080026 56 150 3.5 7.8 0.00 0.00 0.00 58 1017.1
20260830074527 56 155 3.5 8.7 0.00 0.00 0.00 57 1017.1
20260830073021 57 167 4.3 9.6 0.00 0.00 0.00 56 1016.8
20260830071519 57 147 4.3 7.0 0.00 0.00 0.00 56 1016.9
20260830070017 58 152 2.6 6.1 0.00 0.00 0.00 55 1016.7
20260830064524 58 208 4.3 7.8 0.00 0.00 0.00 54 1016.8
20260830063014 59 211 5.2 11.3 0.00 0.00 0.00 53 1016.8
20260830061517 59 219 7.0 10.4 0.00 0.00 0.00 53 1016.5